Cloud_Cover
1 4 5 5 5 5 5 12 92 100 100 100 100 92 27 5 5 5 5 5 3 5 4 0 1 1 0 68 100 100 100 100 100 100 100 100 100 100 100 100 100 100 100
5 5 5 5 5 8 51 100 100 100 100 98 58 9 10 2 5 5 5 5 5 5 5 2 2 0 0 4 100 100 100 100 100 100 100 100 100 100 100 100 100 100 100
5 5 5 5 14 59 100 100 100 100 100 78 89 56 8 5 4 5 5 5 5 5 4 4 0 3 0 5 100 100 100 100 100 100 100 100 100 100 100 100 100 100 100
5 5 5 5 53 100 100 100 100 100 100 100 100 67 15 5 5 5 5 5 5 5 5 0 0 2 0 58 100 100 100 100 100 100 100 100 100 100 100 100 100 100 100
5 5 5 14 99 100 100 100 100 100 100 100 100 73 25 5 5 5 5 5 23 19 6 5 0 0 0 97 100 100 100 100 100 100 100 100 100 100 100 100 100 100 100
5 5 7 54 100 100 100 100 100 100 100 100 99 89 10 5 5 5 6 56 6 5 5 5 0 0 0 100 100 100 100 100 100 100 100 100 99 100 100 100 100 100 100
4 5 10 69 100 100 100 100 100 100 100 100 100 66 5 5 5 16 80 5 27 72 65 8 3 2 0 100 100 100 100 100 100 100 100 100 100 100 100 100 100 100 100
0 5 30 81 100 100 100 100 100 100 100 100 100 100 62 56 62 5 4 25 37 23 30 17 17 5 78 100 100 100 100 100 100 100 100 100 100 100 100 100 100 100 100
1 5 54 84 95 100 100 100 100 100 100 100 100 100 99 99 59 42 39 12 9 12 22 80 3 16 95 100 100 100 100 100 100 100 100 100 100 100 100 100 100 100 100
5 4 20 70 84 100 100 100 100 100 100 100 100 99 100 100 100 66 52 18 6 24 10 7 1 19 100 100 100 100 100 100 100 100 100 100 100 100 100 100 100 100 100
5 0 6 82 76 86 100 100 100 100 100 100 100 100 100 100 100 100 72 26 13 5 7 4 26 84 100 100 100 100 100 100 100 100 100 100 100 100 96 100 100 100 100
1 0 6 41 64 78 100 90 99 100 100 97 100 100 100 100 100 100 99 85 74 11 32 29 52 100 100 100 100 100 100 100 100 100 100 100 100 100 100 100 100 100 100
0 4 8 5 5 79 100 100 100 100 100 100 100 100 100 100 100 100 97 100 100 100 100 88 64 100 100 100 100 100 100 100 100 100 100 100 100 100 100 100 100 100 100
1 5 5 5 16 93 100 100 100 100 100 100 100 100 100 100 100 100 100 100 100 99 100 4 100 96 100 100 100 100 100 100 100 100 100 100 100 100 100 100 100 100 100
5 5 5 5 68 99 100 100 100 100 100 100 100 100 100 100 100 100 100 100 100 100 16 98 62 100 100 100 100 100 100 100 100 100 100 100 100 100 100 100 100 100 100
0 5 5 5 81 100 100 100 100 100 100 100 100 100 100 100 100 100 100 100 100 100 91 100 100 100 100 100 100 100 100 100 100 100 100 100 100 100 100 100 100 100 100
5 5 5 6 78 100 100 100 100 100 100 100 100 100 100 100 100 100 100 100 100 100 100 100 100 100 100 100 100 100 100 100 100 100 100 100 100 100 100 100 100 100 100
5 5 5 9 89 94 100 100 100 100 100 100 100 100 100 100 100 100 100 100 100 100 100 100 100 100 100 100 100 100 100 100 100 100 100 100 100 100 100 100 100 100 100
4 5 5 43 100 100 100 100 100 100 100 100 100 100 100 100 100 100 100 100 97 100 100 100 100 100 100 100 100 100 100 100 100 100 100 100 100 100 100 100 100 100 100
0 5 52 87 79 100 100 100 100 100 100 100 100 100 100 100 100 100 100 96 100 100 100 100 100 100 100 100 100 100 100 100 100 100 100 82 100 78 86 94 100 100 100
0 4 100 100 97 100 100 100 100 100 100 100 100 100 100 100 100 100 100 100 100 100 100 100 100 100 100 100 100 100 100 100 100 100 100 100 85 90 88 93 100 100 100
0 4 100 100 100 100 100 100 100 100 100 100 100 100 100 100 100 100 100 100 100 100 100 100 100 100 100 100 100 100 100 100 100 100 100 100 100 100 99 82 100 100 35
0 59 96 98 100 100 99 100 100 100 100 100 100 100 100 100 100 100 100 100 100 100 100 100 100 100 100 100 100 100 100 100 100 100 100 100 100 100 100 100 100 100 100
0 19 99 51 90 99 91 98 100 100 100 100 100 100 100 100 100 100 100 100 100 100 100 100 100 100 100 100 100 100 100 100 100 100 100 100 100 100 100 100 100 100 100
0 5 3 5 45 31 57 93 100 100 100 100 100 100 100 100 100 100 100 100 100 100 100 100 100 100 100 100 100 100 100 100 100 100 100 100 100 100 100 100 100 100 100
0 0 0 4 14 5 7 83 73 100 100 98 100 100 100 100 100 100 100 100 100 100 100 100 100 100 100 100 100 100 100 100 100 100 100 100 100 100 100 100 100 100 100